Time,TemperatureF,DewpointF,PressureIn,WindDirection,WindDirectionDegrees,WindSpeedMPH,WindSpeedGustMPH,Humidity,HourlyPrecipIn,Conditions,Clouds,dailyrainin,SoftwareType,DateUTC
2013-05-26 00:01:00,49.8,48.4,29.96,ESE,122,13.0,26.0,95,0.00,,---,0.00,VWS V14.01,2013-05-26 05:01:00,
2013-05-26 00:06:00,49.8,48.4,29.96,SE,137,16.0,19.0,95,0.00,,---,0.00,VWS V14.01,2013-05-26 05:06:00,
2013-05-26 00:11:00,49.8,48.4,29.96,ESE,118,13.0,20.0,95,0.00,,---,0.00,VWS V14.01,2013-05-26 05:11:00,
2013-05-26 00:16:00,49.8,48.4,29.97,South,172,7.0,20.0,95,0.00,,---,0.00,VWS V14.01,2013-05-26 05:16:00,
2013-05-26 00:21:00,49.8,48.4,29.97,SSE,148,6.0,20.0,95,0.00,,---,0.00,VWS V14.01,2013-05-26 05:21:00,
2013-05-26 00:26:00,49.8,48.4,29.97,East,93,6.0,20.0,95,0.00,,---,0.00,VWS V14.01,2013-05-26 05:26:00,
2013-05-26 00:31:00,49.8,48.4,29.97,SE,135,20.0,20.0,95,0.00,,---,0.00,VWS V14.01,2013-05-26 05:31:00,
2013-05-26 00:36:00,49.8,48.4,29.97,East,96,16.0,22.0,95,0.00,,---,0.00,VWS V14.01,2013-05-26 05:36:00,
2013-05-26 00:41:00,49.6,48.2,29.97,East,79,9.0,22.0,95,0.00,,---,0.00,VWS V14.01,2013-05-26 05:41:00,
2013-05-26 00:46:00,49.6,48.2,29.97,SE,132,7.0,22.0,95,0.00,,---,0.00,VWS V14.01,2013-05-26 05:46:00,
2013-05-26 00:51:00,49.6,48.2,29.97,SE,146,16.0,22.0,95,0.00,,---,0.00,VWS V14.01,2013-05-26 05:51:00,
2013-05-26 00:56:00,49.6,48.2,29.97,SE,136,12.0,22.0,95,0.00,,---,0.00,VWS V14.01,2013-05-26 05:56:00,
2013-05-26 01:01:00,49.6,48.2,29.97,ESE,110,3.0,22.0,95,0.00,,---,0.00,VWS V14.01,2013-05-26 06:01:00,
2013-05-26 01:06:00,49.5,48.1,29.97,ESE,105,5.0,16.0,95,0.00,,---,0.00,VWS V14.01,2013-05-26 06:06:00,
2013-05-26 01:11:00,49.5,48.1,29.97,SE,129,13.0,19.0,95,0.00,,---,0.00,VWS V14.01,2013-05-26 06:11:00,
2013-05-26 01:16:00,49.5,48.1,29.96,ESE,115,11.0,20.0,95,0.00,,---,0.00,VWS V14.01,2013-05-26 06:16:00,
2013-05-26 01:21:00,49.5,48.1,29.96,East,98,11.0,20.0,95,0.00,,---,0.00,VWS V14.01,2013-05-26 06:21:00,
2013-05-26 01:26:00,49.4,48.0,29.96,NE,49,9.0,20.0,95,0.00,,---,0.00,VWS V14.01,2013-05-26 06:26:00,
2013-05-26 01:31:00,49.4,48.0,29.92,East,82,12.0,21.0,95,0.00,,---,0.00,VWS V14.01,2013-05-26 06:31:00,
2013-05-26 01:36:00,49.4,48.0,29.92,East,98,12.0,17.0,95,0.00,,---,0.00,VWS V14.01,2013-05-26 06:36:00,
2013-05-26 01:41:00,49.4,48.0,29.92,ESE,106,10.0,17.0,95,0.00,,---,0.00,VWS V14.01,2013-05-26 06:41:00,
2013-05-26 01:46:00,49.4,48.3,29.92,East,101,9.0,17.0,96,0.00,,---,0.00,VWS V14.01,2013-05-26 06:46:00,
2013-05-26 01:51:00,49.2,48.1,29.92,ESE,108,6.0,17.0,96,0.00,,---,0.00,VWS V14.01,2013-05-26 06:51:00,
2013-05-26 01:56:00,49.4,48.3,29.92,East,96,10.0,17.0,96,0.00,,---,0.00,VWS V14.01,2013-05-26 06:56:00,
2013-05-26 02:01:00,49.4,48.3,29.88,East,89,7.0,17.0,96,0.00,,---,0.00,VWS V14.01,2013-05-26 07:01:00,
2013-05-26 02:06:00,49.2,48.1,29.88,East,95,9.0,15.0,96,0.00,,---,0.00,VWS V14.01,2013-05-26 07:06:00,
2013-05-26 02:11:00,49.4,48.3,29.88,ESE,120,8.0,17.0,96,0.00,,---,0.00,VWS V14.01,2013-05-26 07:11:00,
2013-05-26 02:16:00,49.4,48.3,29.89,ESE,103,15.0,17.0,96,0.00,,---,0.00,VWS V14.01,2013-05-26 07:16:00,
2013-05-26 02:21:00,49.4,48.3,29.89,ESE,106,12.0,17.0,96,0.00,,---,0.00,VWS V14.01,2013-05-26 07:21:00,
2013-05-26 02:26:00,49.4,48.3,29.89,ESE,104,5.0,20.0,96,0.00,,---,0.00,VWS V14.01,2013-05-26 07:26:00,
2013-05-26 02:31:00,49.4,48.3,29.91,East,99,7.0,20.0,96,0.00,,---,0.00,VWS V14.01,2013-05-26 07:31:00,
2013-05-26 02:36:00,49.4,48.3,29.91,East,92,15.0,15.0,96,0.00,,---,0.00,VWS V14.01,2013-05-26 07:36:00,
2013-05-26 02:41:00,49.2,48.1,29.91,East,99,9.0,15.0,96,0.00,,---,0.00,VWS V14.01,2013-05-26 07:41:00,
2013-05-26 02:46:00,49.2,48.1,29.92,ESE,103,14.0,16.0,96,0.00,,---,0.00,VWS V14.01,2013-05-26 07:46:00,
2013-05-26 02:51:00,49.2,48.1,29.92,East,81,13.0,16.0,96,0.00,,---,0.00,VWS V14.01,2013-05-26 07:51:00,
2013-05-26 02:56:00,49.2,48.1,29.92,East,94,10.0,20.0,96,0.00,,---,0.00,VWS V14.01,2013-05-26 07:56:00,
2013-05-26 03:01:00,49.1,48.0,29.92,East,96,8.0,20.0,96,0.00,,---,0.00,VWS V14.01,2013-05-26 08:01:00,
2013-05-26 03:06:00,48.9,47.8,29.92,SSE,152,11.0,14.0,96,0.00,,---,0.00,VWS V14.01,2013-05-26 08:06:00,
2013-05-26 03:11:00,48.9,47.8,29.92,East,87,7.0,18.0,96,0.00,,---,0.00,VWS V14.01,2013-05-26 08:11:00,
2013-05-26 03:16:00,48.9,47.8,29.92,East,94,9.0,18.0,96,0.00,,---,0.00,VWS V14.01,2013-05-26 08:16:00,
2013-05-26 03:21:00,48.9,48.1,29.92,ESE,110,8.0,18.0,97,0.00,,---,0.00,VWS V14.01,2013-05-26 08:21:00,
2013-05-26 03:26:00,48.9,48.1,29.92,East,100,3.0,18.0,97,0.00,,---,0.00,VWS V14.01,2013-05-26 08:26:00,
2013-05-26 03:31:00,49.1,48.3,29.97,SE,125,4.0,18.0,97,0.00,,---,0.00,VWS V14.01,2013-05-26 08:31:00,
2013-05-26 03:36:00,49.1,48.3,29.97,SE,140,9.0,12.0,97,0.00,,---,0.00,VWS V14.01,2013-05-26 08:36:00,
2013-05-26 03:41:00,49.1,48.3,29.97,SE,141,14.0,17.0,97,0.00,,---,0.00,VWS V14.01,2013-05-26 08:41:00,
2013-05-26 03:46:00,49.1,48.3,30.00,SE,136,10.0,17.0,97,0.00,,---,0.00,VWS V14.01,2013-05-26 08:46:00,
2013-05-26 03:51:00,49.1,48.3,30.00,SE,133,5.0,17.0,97,0.00,,---,0.00,VWS V14.01,2013-05-26 08:51:00,
2013-05-26 03:56:00,49.1,48.3,30.00,SE,141,6.0,17.0,97,0.00,,---,0.00,VWS V14.01,2013-05-26 08:56:00,
2013-05-26 04:01:00,49.1,48.3,30.02,SE,131,7.0,17.0,97,0.00,,---,0.00,VWS V14.01,2013-05-26 09:01:00,
2013-05-26 04:06:00,49.1,48.3,30.02,SE,131,5.0,8.0,97,0.00,,---,0.00,VWS V14.01,2013-05-26 09:06:00,
2013-05-26 04:11:00,49.1,48.3,30.02,SE,131,3.0,8.0,97,0.00,,---,0.00,VWS V14.01,2013-05-26 09:11:00,
2013-05-26 04:16:00,49.1,48.3,30.01,SE,131,4.0,8.0,97,0.00,,---,0.00,VWS V14.01,2013-05-26 09:16:00,
2013-05-26 04:21:00,49.1,48.3,30.01,SE,131,5.0,8.0,97,0.00,,---,0.00,VWS V14.01,2013-05-26 09:21:00,
2013-05-26 04:26:00,49.1,48.3,30.01,SE,131,9.0,9.0,97,0.00,,---,0.00,VWS V14.01,2013-05-26 09:26:00,
2013-05-26 04:31:00,49.1,48.3,30.00,SE,131,9.0,10.0,97,0.00,,---,0.00,VWS V14.01,2013-05-26 09:31:00,
2013-05-26 04:36:00,49.1,48.3,30.00,SE,132,5.0,10.0,97,0.00,,---,0.00,VWS V14.01,2013-05-26 09:36:00,
2013-05-26 04:41:00,49.1,48.3,30.00,SE,124,6.0,10.0,97,0.01,,---,0.01,VWS V14.01,2013-05-26 09:41:00,
2013-05-26 04:46:00,49.1,48.3,29.98,East,91,6.0,11.0,97,0.01,,---,0.01,VWS V14.01,2013-05-26 09:46:00,
2013-05-26 04:51:00,48.9,48.1,29.98,ESE,110,5.0,11.0,97,0.01,,---,0.01,VWS V14.01,2013-05-26 09:51:00,
2013-05-26 04:56:00,48.9,48.1,29.98,ESE,103,6.0,11.0,97,0.02,,---,0.02,VWS V14.01,2013-05-26 09:56:00,
2013-05-26 05:01:00,48.8,48.0,29.97,East,94,7.0,11.0,97,0.02,,---,0.02,VWS V14.01,2013-05-26 10:01:00,
2013-05-26 05:06:00,48.8,48.0,29.97,East,101,7.0,9.0,97,0.02,,---,0.02,VWS V14.01,2013-05-26 10:06:00,
2013-05-26 05:11:00,48.8,48.0,29.97,East,86,6.0,15.0,97,0.02,,---,0.02,VWS V14.01,2013-05-26 10:11:00,
2013-05-26 05:16:00,48.6,47.8,29.92,ESE,108,4.0,15.0,97,0.02,,---,0.02,VWS V14.01,2013-05-26 10:16:00,
2013-05-26 05:21:00,48.6,47.8,29.92,East,98,10.0,18.0,97,0.03,,---,0.03,VWS V14.01,2013-05-26 10:21:00,
2013-05-26 05:26:00,48.6,47.8,29.92,ESE,110,11.0,18.0,97,0.03,,---,0.03,VWS V14.01,2013-05-26 10:26:00,
2013-05-26 05:31:00,48.6,47.8,29.87,East,89,9.0,19.0,97,0.03,,---,0.03,VWS V14.01,2013-05-26 10:31:00,
2013-05-26 05:36:00,48.6,47.8,29.87,East,89,10.0,15.0,97,0.04,,---,0.04,VWS V14.01,2013-05-26 10:36:00,
2013-05-26 05:41:00,48.6,47.8,29.87,East,88,14.0,18.0,97,0.04,,---,0.04,VWS V14.01,2013-05-26 10:41:00,
2013-05-26 05:46:00,48.6,47.8,29.89,ESE,120,10.0,18.0,97,0.04,,---,0.04,VWS V14.01,2013-05-26 10:46:00,
2013-05-26 05:50:00,48.6,47.8,29.89,SE,143,17.0,21.0,97,0.05,,---,0.05,VWS V14.01,2013-05-26 10:50:00,
2013-05-26 05:55:00,48.6,47.8,29.89,East,84,7.0,21.0,97,0.05,,---,0.05,VWS V14.01,2013-05-26 10:55:00,
2013-05-26 06:00:00,48.6,47.8,29.87,ESE,104,10.0,21.0,97,0.05,,---,0.05,VWS V14.01,2013-05-26 11:00:00,
2013-05-26 06:05:00,48.6,47.8,29.87,SE,140,17.0,24.0,97,0.04,,---,0.06,VWS V14.01,2013-05-26 11:05:00,
2013-05-26 06:10:00,48.8,48.0,29.87,SSE,153,23.0,26.0,97,0.04,,---,0.06,VWS V14.01,2013-05-26 11:10:00,
2013-05-26 06:15:00,48.8,48.0,29.89,SE,129,17.0,26.0,97,0.04,,---,0.06,VWS V14.01,2013-05-26 11:15:00,
2013-05-26 06:20:00,48.9,48.1,29.89,SSE,149,14.0,26.0,97,0.04,,---,0.06,VWS V14.01,2013-05-26 11:20:00,
2013-05-26 06:25:00,48.9,48.1,29.89,SE,143,13.0,26.0,97,0.05,,---,0.07,VWS V14.01,2013-05-26 11:25:00,
2013-05-26 06:31:00,49.1,48.3,29.92,SE,146,9.0,26.0,97,0.05,,---,0.07,VWS V14.01,2013-05-26 11:31:00,
2013-05-26 06:36:00,49.2,48.1,29.92,South,176,15.0,18.0,96,0.04,,---,0.07,VWS V14.01,2013-05-26 11:36:00,
2013-05-26 06:40:00,49.2,48.1,29.92,SSE,168,14.0,18.0,96,0.04,,---,0.07,VWS V14.01,2013-05-26 11:40:00,
2013-05-26 06:45:00,49.4,48.3,29.92,SE,133,12.0,18.0,96,0.04,,---,0.07,VWS V14.01,2013-05-26 11:45:00,
2013-05-26 06:50:00,49.4,48.3,29.92,SE,137,18.0,21.0,96,0.05,,---,0.08,VWS V14.01,2013-05-26 11:50:00,
2013-05-26 06:55:00,49.4,48.3,29.92,ESE,117,11.0,21.0,96,0.05,,---,0.08,VWS V14.01,2013-05-26 11:55:00,
2013-05-26 07:00:00,49.5,48.4,29.90,ESE,120,9.0,21.0,96,0.05,,---,0.08,VWS V14.01,2013-05-26 12:00:00,
2013-05-26 07:05:00,49.8,48.7,29.90,North,4,12.0,12.0,96,0.03,,---,0.08,VWS V14.01,2013-05-26 12:05:00,
2013-05-26 07:11:00,50.4,49.6,29.90,North,0,3.0,14.0,97,0.03,,---,0.08,VWS V14.01,2013-05-26 12:11:00,
2013-05-26 07:16:00,50.5,49.4,29.98,NW,321,14.0,16.0,96,0.03,,---,0.08,VWS V14.01,2013-05-26 12:16:00,
2013-05-26 07:21:00,51.0,49.9,29.98,NW,321,3.0,16.0,96,0.04,,---,0.09,VWS V14.01,2013-05-26 12:21:00,
2013-05-26 07:26:00,51.0,49.9,29.98,NW,321,2.0,16.0,96,0.04,,---,0.09,VWS V14.01,2013-05-26 12:26:00,
2013-05-26 07:31:00,51.0,49.9,30.00,NW,323,2.0,16.0,96,0.04,,---,0.09,VWS V14.01,2013-05-26 12:31:00,
2013-05-26 07:36:00,51.1,50.0,30.00,NW,320,3.0,9.0,96,0.02,,---,0.09,VWS V14.01,2013-05-26 12:36:00,
2013-05-26 07:41:00,51.1,49.7,30.00,NNW,327,3.0,9.0,95,0.02,,---,0.09,VWS V14.01,2013-05-26 12:41:00,
2013-05-26 07:46:00,51.1,49.7,30.00,NNW,327,0.0,9.0,95,0.02,,---,0.09,VWS V14.01,2013-05-26 12:46:00,
2013-05-26 07:51:00,51.1,49.7,30.00,NNW,327,1.0,9.0,95,0.02,,---,0.09,VWS V14.01,2013-05-26 12:51:00,
2013-05-26 07:56:00,51.0,49.6,30.00,NNW,327,4.0,9.0,95,0.03,,---,0.10,VWS V14.01,2013-05-26 12:56:00,
2013-05-26 08:01:00,50.8,49.4,30.00,North,3,1.0,9.0,95,0.03,,---,0.10,VWS V14.01,2013-05-26 13:01:00,
2013-05-26 08:06:00,50.5,49.1,30.00,North,3,0.0,3.0,95,0.02,,---,0.10,VWS V14.01,2013-05-26 13:06:00,
2013-05-26 08:11:00,50.5,49.1,30.00,North,4,0.0,4.0,95,0.02,,---,0.10,VWS V14.01,2013-05-26 13:11:00,
2013-05-26 08:16:00,50.4,49.0,30.00,North,3,1.0,4.0,95,0.02,,---,0.10,VWS V14.01,2013-05-26 13:16:00,
2013-05-26 08:21:00,50.2,48.8,30.00,North,3,0.0,6.0,95,0.02,,---,0.10,VWS V14.01,2013-05-26 13:21:00,
2013-05-26 08:26:00,50.1,48.7,30.00,North,8,4.0,8.0,95,0.02,,---,0.10,VWS V14.01,2013-05-26 13:26:00,
2013-05-26 08:31:00,49.9,48.5,29.97,North,8,5.0,8.0,95,0.02,,---,0.10,VWS V14.01,2013-05-26 13:31:00,
2013-05-26 08:36:00,49.8,48.7,29.97,NE,37,4.0,10.0,96,0.01,,---,0.10,VWS V14.01,2013-05-26 13:36:00,
2013-05-26 08:41:00,49.6,48.5,29.97,East,92,4.0,14.0,96,0.01,,---,0.10,VWS V14.01,2013-05-26 13:41:00,
2013-05-26 08:46:00,49.5,48.4,29.97,East,93,1.0,14.0,96,0.01,,---,0.10,VWS V14.01,2013-05-26 13:46:00,
2013-05-26 08:51:00,49.4,48.3,29.97,ESE,109,6.0,14.0,96,0.01,,---,0.10,VWS V14.01,2013-05-26 13:51:00,
2013-05-26 08:56:00,49.2,48.1,29.97,ESE,119,8.0,14.0,96,0.02,,---,0.11,VWS V14.01,2013-05-26 13:56:00,
2013-05-26 09:00:00,49.1,48.0,29.90,ESE,123,10.0,15.0,96,0.02,,---,0.11,VWS V14.01,2013-05-26 14:00:00,
2013-05-26 09:05:00,48.9,47.8,29.90,ESE,108,10.0,19.0,96,0.01,,---,0.11,VWS V14.01,2013-05-26 14:05:00,
2013-05-26 09:10:00,48.9,48.1,29.90,ESE,109,12.0,20.0,97,0.01,,---,0.11,VWS V14.01,2013-05-26 14:10:00,
2013-05-26 09:15:00,48.9,48.1,29.83,East,96,11.0,20.0,97,0.01,,---,0.11,VWS V14.01,2013-05-26 14:15:00,
2013-05-26 09:20:00,49.1,48.3,29.83,ESE,103,18.0,25.0,97,0.01,,---,0.11,VWS V14.01,2013-05-26 14:20:00,
2013-05-26 09:25:00,49.4,48.6,29.83,ESE,109,19.0,25.0,97,0.01,,---,0.11,VWS V14.01,2013-05-26 14:25:00,
2013-05-26 09:31:00,49.5,48.7,29.80,East,92,9.0,25.0,97,0.02,,---,0.12,VWS V14.01,2013-05-26 14:31:00,
2013-05-26 09:35:00,49.8,49.0,29.80,ESE,108,9.0,29.0,97,0.02,,---,0.12,VWS V14.01,2013-05-26 14:35:00,
2013-05-26 09:40:00,49.9,49.1,29.80,SE,127,16.0,29.0,97,0.02,,---,0.12,VWS V14.01,2013-05-26 14:40:00,
2013-05-26 09:45:00,49.9,49.1,29.83,SE,137,13.0,29.0,97,0.02,,---,0.12,VWS V14.01,2013-05-26 14:45:00,
2013-05-26 09:50:00,49.9,49.1,29.83,East,86,15.0,29.0,97,0.02,,---,0.12,VWS V14.01,2013-05-26 14:50:00,
2013-05-26 09:55:00,49.9,48.8,29.83,East,96,14.0,29.0,96,0.02,,---,0.12,VWS V14.01,2013-05-26 14:55:00,
2013-05-26 10:00:00,50.1,49.0,29.85,East,84,10.0,29.0,96,0.02,,---,0.12,VWS V14.01,2013-05-26 15:00:00,
2013-05-26 10:05:00,50.4,49.3,29.85,East,101,10.0,13.0,96,0.01,,---,0.12,VWS V14.01,2013-05-26 15:05:00,
2013-05-26 10:10:00,50.4,49.0,29.85,ESE,107,4.0,14.0,95,0.01,,---,0.12,VWS V14.01,2013-05-26 15:10:00,
2013-05-26 10:15:00,50.5,49.1,29.88,SE,142,10.0,16.0,95,0.01,,---,0.12,VWS V14.01,2013-05-26 15:15:00,
2013-05-26 10:20:00,50.5,49.1,29.88,SE,129,6.0,16.0,95,0.01,,---,0.12,VWS V14.01,2013-05-26 15:20:00,
2013-05-26 10:25:00,50.7,49.9,29.88,NW,316,7.0,16.0,97,0.01,,---,0.12,VWS V14.01,2013-05-26 15:25:00,
2013-05-26 10:30:00,51.6,50.2,29.99,NNW,327,1.0,16.0,95,0.02,,---,0.13,VWS V14.01,2013-05-26 15:30:00,
2013-05-26 10:35:00,51.6,49.9,29.99,WNW,301,2.0,10.0,94,0.01,,---,0.13,VWS V14.01,2013-05-26 15:35:00,
2013-05-26 10:40:00,51.6,50.2,29.99,West,270,0.0,11.0,95,0.01,,---,0.13,VWS V14.01,2013-05-26 15:40:00,
2013-05-26 10:45:00,51.7,50.3,30.00,West,270,2.0,11.0,95,0.01,,---,0.13,VWS V14.01,2013-05-26 15:45:00,
2013-05-26 10:50:00,51.7,50.0,30.00,NW,312,3.0,11.0,94,0.01,,---,0.13,VWS V14.01,2013-05-26 15:50:00,
2013-05-26 10:55:00,52.0,50.3,30.00,NW,323,3.0,11.0,94,0.01,,---,0.13,VWS V14.01,2013-05-26 15:55:00,
2013-05-26 11:00:00,52.3,50.6,30.00,NNW,331,4.0,11.0,94,0.01,,---,0.13,VWS V14.01,2013-05-26 16:00:00,
2013-05-26 11:05:00,52.6,51.2,30.00,NNW,345,6.0,9.0,95,0.01,,---,0.13,VWS V14.01,2013-05-26 16:05:00,
2013-05-26 11:10:00,52.8,51.1,30.00,NNW,347,0.0,9.0,94,0.01,,---,0.13,VWS V14.01,2013-05-26 16:10:00,
2013-05-26 11:15:00,52.8,51.1,30.00,NNW,347,1.0,9.0,94,0.02,,---,0.14,VWS V14.01,2013-05-26 16:15:00,
2013-05-26 11:20:00,52.3,50.6,30.00,ESE,108,11.0,14.0,94,0.02,,---,0.14,VWS V14.01,2013-05-26 16:20:00,
2013-05-26 11:25:00,51.9,50.2,30.00,SE,133,12.0,22.0,94,0.02,,---,0.14,VWS V14.01,2013-05-26 16:25:00,
2013-05-26 11:30:00,51.6,50.8,29.83,ESE,113,14.0,26.0,97,0.02,,---,0.14,VWS V14.01,2013-05-26 16:30:00,
2013-05-26 11:35:00,51.4,50.0,29.83,East,100,9.0,15.0,95,0.01,,---,0.14,VWS V14.01,2013-05-26 16:35:00,
2013-05-26 11:40:00,51.3,49.9,29.83,East,83,6.0,19.0,95,0.01,,---,0.14,VWS V14.01,2013-05-26 16:40:00,
2013-05-26 11:45:00,51.4,50.0,29.88,ESE,105,6.0,19.0,95,0.01,,---,0.14,VWS V14.01,2013-05-26 16:45:00,
2013-05-26 11:50:00,51.3,49.9,29.88,East,83,4.0,19.0,95,0.01,,---,0.14,VWS V14.01,2013-05-26 16:50:00,
2013-05-26 11:55:00,51.3,49.9,29.88,SE,124,0.0,19.0,95,0.01,,---,0.14,VWS V14.01,2013-05-26 16:55:00,
2013-05-26 12:00:00,51.4,50.0,29.88,NE,54,7.0,19.0,95,0.01,,---,0.14,VWS V14.01,2013-05-26 17:00:00,
2013-05-26 12:05:00,51.7,50.3,29.88,NE,42,3.0,10.0,95,0.02,,---,0.15,VWS V14.01,2013-05-26 17:05:00,
2013-05-26 12:10:00,51.7,50.3,29.88,NE,35,3.0,15.0,95,0.02,,---,0.15,VWS V14.01,2013-05-26 17:10:00,
2013-05-26 12:15:00,51.9,50.5,29.90,NNE,15,0.0,15.0,95,0.02,,---,0.15,VWS V14.01,2013-05-26 17:15:00,
2013-05-26 12:20:00,51.7,50.3,29.90,NNE,18,5.0,15.0,95,0.02,,---,0.15,VWS V14.01,2013-05-26 17:20:00,
2013-05-26 12:25:00,51.7,50.3,29.90,ENE,58,5.0,15.0,95,0.02,,---,0.15,VWS V14.01,2013-05-26 17:25:00,
2013-05-26 12:30:00,51.9,50.2,29.86,ENE,66,9.0,15.0,94,0.02,,---,0.15,VWS V14.01,2013-05-26 17:30:00,
2013-05-26 12:35:00,51.9,50.2,29.86,ENE,75,6.0,11.0,94,0.01,,---,0.15,VWS V14.01,2013-05-26 17:35:00,
2013-05-26 12:40:00,52.0,50.3,29.86,ENE,75,10.0,13.0,94,0.01,,---,0.15,VWS V14.01,2013-05-26 17:40:00,
2013-05-26 12:45:00,52.2,50.2,29.84,East,80,4.0,13.0,93,0.01,,---,0.15,VWS V14.01,2013-05-26 17:45:00,
2013-05-26 12:50:00,52.3,50.3,29.84,East,90,9.0,13.0,93,0.02,,---,0.16,VWS V14.01,2013-05-26 17:50:00,
2013-05-26 12:55:00,52.0,50.0,29.84,East,88,9.0,15.0,93,0.02,,---,0.16,VWS V14.01,2013-05-26 17:55:00,
2013-05-26 13:00:00,51.9,49.9,29.86,SE,134,5.0,15.0,93,0.02,,---,0.16,VWS V14.01,2013-05-26 18:00:00,
2013-05-26 13:05:00,51.6,49.7,29.86,East,90,4.0,13.0,93,0.02,,---,0.16,VWS V14.01,2013-05-26 18:05:00,
2013-05-26 13:10:00,51.6,49.7,29.86,ESE,103,1.0,13.0,93,0.02,,---,0.16,VWS V14.01,2013-05-26 18:10:00,
2013-05-26 13:15:00,51.3,49.3,29.89,ESE,110,6.0,14.0,93,0.02,,---,0.16,VWS V14.01,2013-05-26 18:15:00,
2013-05-26 13:20:00,51.4,49.7,29.89,East,84,6.0,14.0,94,0.02,,---,0.16,VWS V14.01,2013-05-26 18:20:00,
2013-05-26 13:25:00,51.4,49.7,29.89,East,83,6.0,14.0,94,0.02,,---,0.16,VWS V14.01,2013-05-26 18:25:00,
2013-05-26 13:30:00,51.3,49.6,29.90,SE,124,10.0,14.0,94,0.02,,---,0.16,VWS V14.01,2013-05-26 18:30:00,
2013-05-26 13:35:00,51.3,49.6,29.90,East,100,2.0,17.0,94,0.01,,---,0.16,VWS V14.01,2013-05-26 18:35:00,
2013-05-26 13:40:00,51.4,49.7,29.90,East,96,6.0,17.0,94,0.02,,---,0.17,VWS V14.01,2013-05-26 18:40:00,
2013-05-26 13:45:00,51.3,49.6,29.91,ESE,118,4.0,17.0,94,0.02,,---,0.17,VWS V14.01,2013-05-26 18:45:00,
2013-05-26 13:50:00,51.1,49.4,29.91,SE,136,12.0,17.0,94,0.02,,---,0.17,VWS V14.01,2013-05-26 18:50:00,
2013-05-26 13:55:00,51.1,49.4,29.91,ESE,113,5.0,17.0,94,0.02,,---,0.17,VWS V14.01,2013-05-26 18:55:00,
2013-05-26 14:00:00,51.1,49.4,29.91,ESE,109,10.0,17.0,94,0.02,,---,0.17,VWS V14.01,2013-05-26 19:00:00,
2013-05-26 14:05:00,51.3,49.6,29.91,SE,129,5.0,13.0,94,0.01,,---,0.17,VWS V14.01,2013-05-26 19:05:00,
2013-05-26 14:10:00,51.4,50.0,29.91,East,101,5.0,13.0,95,0.01,,---,0.17,VWS V14.01,2013-05-26 19:10:00,
2013-05-26 14:15:00,51.6,50.2,29.91,East,80,4.0,13.0,95,0.02,,---,0.18,VWS V14.01,2013-05-26 19:15:00,
2013-05-26 14:20:00,51.9,50.5,29.91,East,90,6.0,13.0,95,0.02,,---,0.18,VWS V14.01,2013-05-26 19:20:00,
2013-05-26 14:25:00,51.9,50.2,29.91,East,91,7.0,13.0,94,0.02,,---,0.18,VWS V14.01,2013-05-26 19:25:00,
2013-05-26 14:30:00,52.2,50.8,29.91,East,85,5.0,13.0,95,0.02,,---,0.18,VWS V14.01,2013-05-26 19:30:00,
2013-05-26 14:35:00,52.0,50.3,29.91,East,81,5.0,11.0,94,0.02,,---,0.18,VWS V14.01,2013-05-26 19:35:00,
2013-05-26 14:40:00,52.2,50.5,29.91,East,79,3.0,11.0,94,0.02,,---,0.18,VWS V14.01,2013-05-26 19:40:00,
2013-05-26 14:45:00,52.2,50.5,29.91,ENE,76,3.0,11.0,94,0.02,,---,0.18,VWS V14.01,2013-05-26 19:45:00,
2013-05-26 14:50:00,52.3,50.6,29.91,ENE,75,2.0,11.0,94,0.02,,---,0.18,VWS V14.01,2013-05-26 19:50:00,
2013-05-26 14:55:00,52.8,50.8,29.91,ENE,59,10.0,11.0,93,0.03,,---,0.19,VWS V14.01,2013-05-26 19:55:00,
2013-05-26 15:00:00,52.6,50.6,29.91,NE,54,5.0,12.0,93,0.03,,---,0.19,VWS V14.01,2013-05-26 20:00:00,
2013-05-26 15:05:00,52.6,50.6,29.91,NE,55,9.0,12.0,93,0.02,,---,0.19,VWS V14.01,2013-05-26 20:05:00,
2013-05-26 15:10:00,52.3,50.3,29.91,NE,49,8.0,13.0,93,0.02,,---,0.19,VWS V14.01,2013-05-26 20:10:00,
2013-05-26 15:15:00,52.5,50.5,29.92,ENE,75,5.0,13.0,93,0.02,,---,0.19,VWS V14.01,2013-05-26 20:15:00,
2013-05-26 15:20:00,52.0,50.0,29.92,ENE,64,7.0,13.0,93,0.02,,---,0.19,VWS V14.01,2013-05-26 20:20:00,
2013-05-26 15:25:00,52.2,50.2,29.92,ENE,66,7.0,13.0,93,0.02,,---,0.19,VWS V14.01,2013-05-26 20:25:00,
2013-05-26 15:30:00,52.0,49.2,29.92,East,82,4.0,13.0,90,0.02,,---,0.19,VWS V14.01,2013-05-26 20:30:00,
2013-05-26 15:35:00,52.2,50.2,29.92,ENE,71,5.0,10.0,93,0.02,,---,0.20,VWS V14.01,2013-05-26 20:35:00,
2013-05-26 15:40:00,52.2,50.2,29.92,East,101,5.0,13.0,93,0.02,,---,0.20,VWS V14.01,2013-05-26 20:40:00,
2013-05-26 15:45:00,52.5,50.5,29.92,ENE,77,6.0,13.0,93,0.02,,---,0.20,VWS V14.01,2013-05-26 20:45:00,
2013-05-26 15:50:00,52.5,50.5,29.92,ENE,75,7.0,13.0,93,0.02,,---,0.20,VWS V14.01,2013-05-26 20:50:00,
2013-05-26 15:55:00,52.6,50.6,29.92,ENE,66,5.0,13.0,93,0.02,,---,0.20,VWS V14.01,2013-05-26 20:55:00,
2013-05-26 16:00:00,52.6,50.6,29.92,East,85,4.0,13.0,93,0.02,,---,0.20,VWS V14.01,2013-05-26 21:00:00,
2013-05-26 16:05:00,52.5,50.5,29.92,ENE,73,0.0,10.0,93,0.01,,---,0.20,VWS V14.01,2013-05-26 21:05:00,
2013-05-26 16:10:00,52.5,50.5,29.92,East,84,5.0,11.0,93,0.01,,---,0.20,VWS V14.01,2013-05-26 21:10:00,
2013-05-26 16:15:00,52.2,50.5,29.94,ESE,102,7.0,12.0,94,0.01,,---,0.20,VWS V14.01,2013-05-26 21:15:00,
2013-05-26 16:20:00,52.2,50.5,29.94,ENE,75,4.0,12.0,94,0.02,,---,0.21,VWS V14.01,2013-05-26 21:20:00,
2013-05-26 16:25:00,52.0,50.3,29.94,ENE,75,6.0,13.0,94,0.02,,---,0.21,VWS V14.01,2013-05-26 21:25:00,
2013-05-26 16:30:00,51.9,50.2,29.94,East,86,6.0,13.0,94,0.02,,---,0.21,VWS V14.01,2013-05-26 21:30:00,
2013-05-26 16:35:00,51.7,50.0,29.94,East,87,6.0,10.0,94,0.02,,---,0.21,VWS V14.01,2013-05-26 21:35:00,
2013-05-26 16:40:00,51.9,50.5,29.94,East,99,4.0,11.0,95,0.02,,---,0.21,VWS V14.01,2013-05-26 21:40:00,
2013-05-26 16:45:00,51.9,50.5,29.94,East,94,10.0,11.0,95,0.03,,---,0.22,VWS V14.01,2013-05-26 21:45:00,
2013-05-26 16:50:00,52.0,50.6,29.94,NE,53,5.0,13.0,95,0.03,,---,0.22,VWS V14.01,2013-05-26 21:50:00,
2013-05-26 16:55:00,52.0,50.6,29.94,East,101,6.0,13.0,95,0.03,,---,0.22,VWS V14.01,2013-05-26 21:55:00,
2013-05-26 17:00:00,52.0,50.6,29.93,NE,55,12.0,13.0,95,0.03,,---,0.22,VWS V14.01,2013-05-26 22:00:00,
2013-05-26 17:05:00,52.0,50.6,29.93,East,90,3.0,11.0,95,0.02,,---,0.22,VWS V14.01,2013-05-26 22:05:00,
2013-05-26 17:10:00,52.2,50.8,29.93,East,98,5.0,12.0,95,0.03,,---,0.23,VWS V14.01,2013-05-26 22:10:00,
2013-05-26 17:15:00,52.0,50.3,29.93,ENE,78,4.0,12.0,94,0.03,,---,0.23,VWS V14.01,2013-05-26 22:15:00,
2013-05-26 17:20:00,51.9,50.2,29.93,ENE,78,3.0,12.0,94,0.03,,---,0.23,VWS V14.01,2013-05-26 22:20:00,
2013-05-26 17:25:00,52.0,50.6,29.93,NE,44,5.0,12.0,95,0.03,,---,0.23,VWS V14.01,2013-05-26 22:25:00,
2013-05-26 17:30:00,52.0,50.6,29.92,NE,46,6.0,12.0,95,0.04,,---,0.24,VWS V14.01,2013-05-26 22:30:00,
2013-05-26 17:35:00,52.2,50.8,29.92,East,94,2.0,9.0,95,0.03,,---,0.24,VWS V14.01,2013-05-26 22:35:00,
2013-05-26 17:40:00,52.3,50.6,29.92,East,87,4.0,9.0,94,0.03,,---,0.24,VWS V14.01,2013-05-26 22:40:00,
2013-05-26 17:45:00,52.2,50.5,29.92,East,79,5.0,9.0,94,0.03,,---,0.24,VWS V14.01,2013-05-26 22:45:00,
2013-05-26 17:50:00,52.3,50.6,29.92,East,101,7.0,10.0,94,0.03,,---,0.24,VWS V14.01,2013-05-26 22:50:00,
2013-05-26 17:55:00,52.3,50.6,29.92,East,100,5.0,11.0,94,0.03,,---,0.24,VWS V14.01,2013-05-26 22:55:00,
2013-05-26 18:00:00,52.2,50.5,29.92,East,101,5.0,12.0,94,0.03,,---,0.24,VWS V14.01,2013-05-26 23:00:00,
2013-05-26 18:05:00,52.2,50.5,29.92,SE,124,5.0,12.0,94,0.02,,---,0.24,VWS V14.01,2013-05-26 23:05:00,
2013-05-26 18:10:00,52.2,50.8,29.92,ENE,71,5.0,12.0,95,0.02,,---,0.24,VWS V14.01,2013-05-26 23:10:00,
2013-05-26 18:15:00,52.3,50.9,29.92,East,86,5.0,12.0,95,0.02,,---,0.24,VWS V14.01,2013-05-26 23:15:00,
2013-05-26 18:20:00,52.3,50.9,29.92,ESE,115,8.0,12.0,95,0.02,,---,0.24,VWS V14.01,2013-05-26 23:20:00,
2013-05-26 18:25:00,52.2,50.8,29.92,East,101,6.0,12.0,95,0.02,,---,0.24,VWS V14.01,2013-05-26 23:25:00,
2013-05-26 18:30:00,52.0,50.6,29.92,East,84,4.0,12.0,95,0.02,,---,0.24,VWS V14.01,2013-05-26 23:30:00,
2013-05-26 18:35:00,51.9,50.5,29.92,East,100,5.0,7.0,95,0.00,,---,0.24,VWS V14.01,2013-05-26 23:35:00,
2013-05-26 18:40:00,51.7,50.3,29.92,East,98,7.0,11.0,95,0.00,,---,0.24,VWS V14.01,2013-05-26 23:40:00,
2013-05-26 18:45:00,51.7,50.6,29.92,East,92,5.0,12.0,96,0.00,,---,0.24,VWS V14.01,2013-05-26 23:45:00,
2013-05-26 18:50:00,51.7,50.6,29.92,ESE,107,4.0,12.0,96,0.00,,---,0.24,VWS V14.01,2013-05-26 23:50:00,
2013-05-26 18:55:00,51.7,50.6,29.92,East,96,11.0,12.0,96,0.00,,---,0.24,VWS V14.01,2013-05-26 23:55:00,
2013-05-26 19:00:00,51.9,50.8,29.90,East,98,3.0,12.0,96,0.00,,---,0.24,VWS V14.01,2013-05-27 00:00:00,
2013-05-26 19:05:00,51.7,50.6,29.90,East,98,4.0,11.0,96,0.00,,---,0.24,VWS V14.01,2013-05-27 00:05:00,
2013-05-26 19:10:00,51.7,50.6,29.90,East,94,10.0,14.0,96,0.00,,---,0.24,VWS V14.01,2013-05-27 00:10:00,
2013-05-26 19:15:00,51.7,50.6,29.90,ESE,105,5.0,14.0,96,0.00,,---,0.24,VWS V14.01,2013-05-27 00:15:00,
2013-05-26 19:20:00,51.6,50.5,29.89,East,98,7.0,14.0,96,0.00,,---,0.24,VWS V14.01,2013-05-27 00:20:00,
2013-05-26 19:25:00,51.4,50.3,29.89,ESE,110,10.0,14.0,96,0.00,,---,0.24,VWS V14.01,2013-05-27 00:25:00,
2013-05-26 19:30:00,51.4,50.6,29.88,East,86,7.0,14.0,97,0.00,,---,0.24,VWS V14.01,2013-05-27 00:30:00,
2013-05-26 19:35:00,51.6,50.8,29.88,East,86,5.0,13.0,97,0.00,,---,0.24,VWS V14.01,2013-05-27 00:35:00,
2013-05-26 19:40:00,51.4,50.3,29.88,ENE,60,12.0,13.0,96,0.00,,---,0.24,VWS V14.01,2013-05-27 00:40:00,
2013-05-26 19:45:00,51.4,50.6,29.87,NE,56,12.0,15.0,97,0.00,,---,0.24,VWS V14.01,2013-05-27 00:45:00,
2013-05-26 19:50:00,51.4,50.6,29.87,East,85,10.0,15.0,97,0.00,,---,0.24,VWS V14.01,2013-05-27 00:50:00,
2013-05-26 19:55:00,51.4,50.6,29.87,ENE,76,5.0,15.0,97,0.00,,---,0.24,VWS V14.01,2013-05-27 00:55:00,
2013-05-26 20:00:00,51.4,50.6,29.89,East,85,6.0,15.0,97,0.00,,---,0.24,VWS V14.01,2013-05-27 01:00:00,
2013-05-26 20:05:00,51.1,50.3,29.89,ESE,108,7.0,12.0,97,0.00,,---,0.24,VWS V14.01,2013-05-27 01:05:00,
2013-05-26 20:10:00,51.1,50.3,29.89,ESE,103,13.0,14.0,97,0.00,,---,0.24,VWS V14.01,2013-05-27 01:10:00,
2013-05-26 20:15:00,51.0,50.2,29.91,East,96,6.0,14.0,97,0.00,,---,0.24,VWS V14.01,2013-05-27 01:15:00,
2013-05-26 20:20:00,51.0,50.2,29.91,ESE,103,9.0,14.0,97,0.00,,---,0.24,VWS V14.01,2013-05-27 01:20:00,
2013-05-26 20:25:00,51.0,50.2,29.91,East,98,8.0,14.0,97,0.00,,---,0.24,VWS V14.01,2013-05-27 01:25:00,
2013-05-26 20:30:00,51.0,50.2,29.91,East,100,3.0,14.0,97,0.00,,---,0.24,VWS V14.01,2013-05-27 01:30:00,
2013-05-26 20:35:00,51.0,50.2,29.90,East,84,10.0,14.0,97,0.00,,---,0.24,VWS V14.01,2013-05-27 01:35:00,
2013-05-26 20:40:00,51.0,50.2,29.90,East,100,4.0,14.0,97,0.00,,---,0.24,VWS V14.01,2013-05-27 01:40:00,
2013-05-26 20:45:00,51.0,50.2,29.90,East,93,3.0,14.0,97,0.00,,---,0.24,VWS V14.01,2013-05-27 01:45:00,
2013-05-26 20:50:00,51.0,50.2,29.91,East,96,9.0,14.0,97,0.00,,---,0.24,VWS V14.01,2013-05-27 01:50:00,
2013-05-26 20:55:00,51.0,50.2,29.91,ESE,104,4.0,14.0,97,0.00,,---,0.24,VWS V14.01,2013-05-27 01:55:00,
2013-05-26 21:00:00,51.0,50.2,29.91,ESE,108,10.0,14.0,97,0.00,,---,0.24,VWS V14.01,2013-05-27 02:00:00,
2013-05-26 21:05:00,51.1,50.3,29.91,East,100,6.0,13.0,97,0.00,,---,0.24,VWS V14.01,2013-05-27 02:05:00,
2013-05-26 21:10:00,51.1,50.3,29.91,ESE,103,5.0,14.0,97,0.00,,---,0.24,VWS V14.01,2013-05-27 02:10:00,
2013-05-26 21:15:00,51.1,50.3,29.91,ESE,113,5.0,14.0,97,0.00,,---,0.24,VWS V14.01,2013-05-27 02:15:00,
2013-05-26 21:20:00,51.1,50.3,29.90,SE,124,6.0,14.0,97,0.00,,---,0.24,VWS V14.01,2013-05-27 02:20:00,
2013-05-26 21:25:00,51.1,50.3,29.90,ESE,115,7.0,14.0,97,0.00,,---,0.24,VWS V14.01,2013-05-27 02:25:00,
2013-05-26 21:30:00,51.1,50.3,29.90,ESE,113,4.0,14.0,97,0.00,,---,0.24,VWS V14.01,2013-05-27 02:30:00,
2013-05-26 21:35:00,51.1,50.3,29.91,SE,137,10.0,13.0,97,0.00,,---,0.24,VWS V14.01,2013-05-27 02:35:00,
2013-05-26 21:40:00,51.1,50.3,29.91,SE,129,12.0,14.0,97,0.00,,---,0.24,VWS V14.01,2013-05-27 02:40:00,
2013-05-26 21:45:00,51.3,50.5,29.91,SE,127,5.0,14.0,97,0.00,,---,0.24,VWS V14.01,2013-05-27 02:45:00,
2013-05-26 21:50:00,51.3,50.5,29.91,ESE,119,9.0,15.0,97,0.00,,---,0.24,VWS V14.01,2013-05-27 02:50:00,
2013-05-26 21:55:00,51.3,50.5,29.91,SE,141,9.0,15.0,97,0.00,,---,0.24,VWS V14.01,2013-05-27 02:55:00,
2013-05-26 22:00:00,51.1,50.3,29.91,ESE,119,3.0,15.0,97,0.00,,---,0.24,VWS V14.01,2013-05-27 03:00:00,
2013-05-26 22:05:00,51.3,50.5,29.90,ESE,108,4.0,11.0,97,0.00,,---,0.24,VWS V14.01,2013-05-27 03:05:00,
2013-05-26 22:10:00,51.1,50.3,29.90,ESE,108,9.0,12.0,97,0.00,,---,0.24,VWS V14.01,2013-05-27 03:10:00,
2013-05-26 22:15:00,51.1,50.3,29.90,East,99,4.0,12.0,97,0.00,,---,0.24,VWS V14.01,2013-05-27 03:15:00,
2013-05-26 22:20:00,51.1,50.3,29.88,East,101,4.0,12.0,97,0.00,,---,0.24,VWS V14.01,2013-05-27 03:20:00,
2013-05-26 22:25:00,51.1,50.3,29.88,East,94,11.0,13.0,97,0.00,,---,0.24,VWS V14.01,2013-05-27 03:25:00,
2013-05-26 22:30:00,51.1,50.3,29.88,East,92,7.0,13.0,97,0.00,,---,0.24,VWS V14.01,2013-05-27 03:30:00,
2013-05-26 22:35:00,51.1,50.3,29.85,ESE,115,8.0,12.0,97,0.00,,---,0.24,VWS V14.01,2013-05-27 03:35:00,
2013-05-26 22:40:00,51.0,50.2,29.85,East,90,7.0,13.0,97,0.00,,---,0.24,VWS V14.01,2013-05-27 03:40:00,
2013-05-26 22:45:00,51.0,50.5,29.85,East,99,6.0,16.0,98,0.00,,---,0.24,VWS V14.01,2013-05-27 03:45:00,
2013-05-26 22:50:00,51.0,50.5,29.86,East,82,7.0,16.0,98,0.00,,---,0.24,VWS V14.01,2013-05-27 03:50:00,
2013-05-26 22:55:00,51.0,50.5,29.86,East,101,4.0,16.0,98,0.00,,---,0.24,VWS V14.01,2013-05-27 03:55:00,
2013-05-26 23:00:00,51.0,50.5,29.86,East,95,10.0,16.0,98,0.00,,---,0.24,VWS V14.01,2013-05-27 04:00:00,
2013-05-26 23:01:00,51.0,50.5,29.85,East,95,4.0,16.0,98,0.00,,---,0.24,VWS V14.01,2013-05-27 04:01:00,
2013-05-26 23:06:00,51.0,50.5,29.85,East,90,3.0,13.0,98,0.00,,---,0.00,VWS V14.01,2013-05-27 04:06:00,
2013-05-26 23:11:00,51.0,50.5,29.85,East,101,6.0,13.0,98,0.00,,---,0.00,VWS V14.01,2013-05-27 04:11:00,
2013-05-26 23:16:00,51.0,50.5,29.87,East,94,7.0,13.0,98,0.00,,---,0.00,VWS V14.01,2013-05-27 04:16:00,
2013-05-26 23:21:00,50.8,50.3,29.87,ESE,108,9.0,13.0,98,0.00,,---,0.00,VWS V14.01,2013-05-27 04:21:00,
2013-05-26 23:26:00,50.8,50.3,29.87,ESE,118,5.0,15.0,98,0.00,,---,0.00,VWS V14.01,2013-05-27 04:26:00,
2013-05-26 23:31:00,50.8,50.3,29.88,ESE,122,6.0,6.0,98,0.00,,---,0.00,VWS V14.01,2013-05-27 04:31:00,
2013-05-26 23:36:00,50.8,50.3,29.88,SE,126,4.0,16.0,98,0.00,,---,0.00,VWS V14.01,2013-05-27 04:36:00,
2013-05-26 23:41:00,50.8,50.3,29.88,East,98,7.0,16.0,98,0.00,,---,0.00,VWS V14.01,2013-05-27 04:41:00,
2013-05-26 23:46:00,50.8,50.3,29.87,East,85,5.0,16.0,98,0.00,,---,0.00,VWS V14.01,2013-05-27 04:46:00,
2013-05-26 23:51:00,50.8,50.3,29.87,East,91,5.0,16.0,98,0.00,,---,0.00,VWS V14.01,2013-05-27 04:51:00,
2013-05-26 23:56:00,50.8,50.3,29.87,SE,135,4.0,16.0,98,0.00,,---,0.00,VWS V14.01,2013-05-27 04:56:00,